Location: Unspecified
(58.7730°N, 5.8460°E)
Time: 15:12:06
(UTC+01:00)

Okean 3 - Visible Passes

Search period start: 31 October 2014 00:00
Search period end: 10 November 2014 00:00
Orbit: 583 x 609 km, 82.5° (Epoch: 30 October)

Date Brightness Start Highest point End Pass type
(mag) Time Alt. Az. Time Alt. Az. Time Alt. Az.
31 Oct 6.3 05:18:37 10° NNE 05:21:26 17° NE 05:24:13 10° E visible
31 Oct 3.7 06:55:16 10° NNW 06:59:35 80° ENE 07:03:51 10° SSE visible
01 Nov 6.0 05:28:27 10° N 05:31:47 21° ENE 05:35:05 10° ESE visible
01 Nov 3.5 07:05:24 10° NNW 07:09:42 74° W 07:13:56 10° S visible
02 Nov 5.6 05:38:22 10° N 05:42:05 28° ENE 05:45:45 10° ESE visible
03 Nov 5.1 05:48:20 10° N 05:52:20 36° ENE 05:56:16 10° SE visible
04 Nov 6.6 04:22:30 10° NNE 04:24:02 12° NE 04:25:33 10° ENE visible
04 Nov 4.4 05:58:21 10° N 06:02:32 49° ENE 06:06:39 10° SE visible
05 Nov 6.5 04:31:57 10° NNE 04:34:25 15° NE 04:36:52 10° E visible
05 Nov 3.8 06:08:24 10° N 06:12:41 68° ENE 06:16:54 10° SSE visible
06 Nov 6.1 04:41:41 10° N 04:44:46 19° NE 04:47:48 10° ESE visible
06 Nov 3.4 06:18:29 10° NNW 06:22:47 87° WSW 06:27:01 10° S visible
07 Nov 5.7 04:51:32 10° N 04:55:03 24° ENE 04:58:32 10° ESE visible
07 Nov 3.4 06:28:37 10° NNW 06:32:50 62° W 06:37:00 10° S visible
07 Nov 5.3 19:05:20 10° SSE 19:06:32 18° SSE 19:06:32 18° SSE visible
07 Nov 6.3 20:43:04 10° SW 20:43:19 11° SW 20:43:19 11° SW visible
08 Nov 5.3 05:01:27 10° N 05:05:18 32° ENE 05:09:06 10° SE visible
08 Nov 3.8 06:38:47 10° NNW 06:42:51 44° W 06:46:52 10° SSW visible
08 Nov 4.1 19:15:12 10° S 19:18:08 41° SSE 19:18:08 41° SSE visible
08 Nov 6.1 20:53:38 10° WSW 20:54:54 16° WSW 20:54:54 16° WSW visible
09 Nov 6.8 03:36:20 10° NE 03:36:53 10° NE 03:37:26 10° NE visible
09 Nov 4.7 05:11:25 10° N 05:15:30 42° ENE 05:19:31 10° SE visible
09 Nov 4.2 06:49:01 10° NNW 06:52:48 32° W 06:56:34 10° SSW visible
09 Nov 5.0 17:50:13 10° ESE 17:52:45 15° E 17:52:49 15° E visible
09 Nov 3.3 19:25:10 10° S 19:29:30 86° ESE 19:29:34 85° ENE visible
09 Nov 6.1 21:04:21 10° WSW 21:06:19 18° WNW 21:06:19 18° WNW visible
